Regional Weather Roundup
Issued by NWS

Home | Current Version | Previous Version | Text Only | Print | Product List | Glossary On
Versions: 1 2 3 4 5 6 7 8 9 10 11 12 13 14 15 16 17 18 19 20 21 22 23 24 25 26 27 28 29 30 31 32 33 34 35 36 37 38 39 40 41 42 43 44 45 46 47 48 49 50
000
ASUS45 KBOI 291210
RWRID

IDAHO REGIONAL WEATHER ROUNDUP
NATIONAL WEATHER SERVICE BOISE ID
600 AM MDT THU JUN 29 2017

NOTE: "FAIR" INDICATES FEW OR NO CLOUDS BELOW 12000 FEET
WITH NO SIGNIFICANT WEATHER AND/OR OBSTRUCTIONS TO VISIBILITY

IDZ012-014-291300-
SOUTHWEST IDAHO


CITY           SKY/WX    TMP DP  RH WIND       PRES   REMARKS
BOISE          CLEAR     57  39  51 CALM      29.98R
CALDWELL       CLEAR     58  37  45 W9        29.98R
MOUNTAIN HOME  CLEAR     56  37  47 N8        29.97R
$$

IDZ016-017-291300-
SOUTHCENTRAL IDAHO


CITY           SKY/WX    TMP DP  RH WIND       PRES   REMARKS
BURLEY         CLEAR     45  39  79 CALM      30.00R
JEROME         CLEAR     54  29  38 SE6       30.01R
TWIN FALLS     CLEAR     53  28  38 SW13      30.01R
$$

IDZ019>023-291300-
SOUTHEAST IDAHO


CITY           SKY/WX    TMP DP  RH WIND       PRES   REMARKS
IDAHO FALLS    CLEAR     48  44  86 NE6       30.03R
POCATELLO      CLEAR     47  45  93 SW8       30.03R
REXBURG        CLEAR     46  42  86 NE7       30.03R
$$

IDZ006-010-011-018-031-032-291300-
CENTRAL IDAHO MOUNTAINS


CITY           SKY/WX    TMP DP  RH WIND       PRES   REMARKS
MCCALL         NOT AVBL
HAILEY         CLEAR     43  32  65 NW8       30.08R
STANLEY          N/A     31  29  92 S3        30.12R
SALMON         PTCLDY    48  45  87 CALM      30.02R
CHALLIS        MOCLDY    50  37  61 SE6       30.04R
$$

IDZ002-004-006-007-026-291300-
NORTHERN IDAHO


CITY           SKY/WX    TMP DP  RH WIND       PRES   REMARKS
LEWISTON       CLEAR     59  50  72 S6        29.98R
LOWELL         NOT AVBL
COEUR D`ALENE  PTCLDY    51  50  96 NE6       30.02R
MULLAN PASS    CLOUDY    44  40  85 S5        30.08R
$$



USA.gov is the U.S. government's official web portal to all federal, state and local government web resources and services.